Back to catalog

DELTA 1 DEB

AliveSSO
NORAD 42588·DEBRIS·🇺🇸 United States

Launched Nov 6, 1973 from Vandenberg Space Force Base

Loading…

Next Passes (next 24 hours)

TLE

AgingSource: Space-Track

Epoch: Sep 6, 2026, 05:34 UTC

1 42588U 73086JC  26249.23255969 -.00000017  00000-0  22905-3 0  9995
2 42588 102.4563 253.9310 0066725 192.3007 230.9536 12.36030810577204

Track DELTA 1 DEB in real time with AllMySat

Download on the App Store